Location: Bazugues
(43.4465°N, 0.3432°E)
Time: 22:51:50
(UTC+00:00)

UNISAT 6 - Pass Details

Date: 26 May 2026
Orbit: 571 x 636 km, 97.8° (Epoch: 7 June)

Event Time Altitude Azimuth Distance (km) Brightness Sun altitude
Rises 03:36:15 0° 184° (S) 2,884 ? -8.0°
Reaches altitude 10° 03:38:33 10° 191° (SSW) 1,973 ? -7.7°
Maximum altitude 03:42:35 40° 262° (W) 902 ? -7.1°
Drops below altitude 10° 03:46:35 10° 332° (NNW) 1,950 ? -6.5°
Sets 03:48:51 0° 340° (NNW) 2,846 ? -6.2°
